Location: Croisilles
(50.1998°N, 2.8793°E)
Time: 03:18:06
(UTC+00:00)

SeaSat 1 - Pass Details

Date: 21 January 2021
Orbit: 744 x 747 km, 108.0° (Epoch: 24 February)

Event Time Altitude Azimuth Distance (km) Brightness Sun altitude
Exits shadow 17:30:34 - 23° (NNE) 3,058 5.2 -10.5°
Reaches altitude 10° 17:32:42 10° 14° (NNE) 2,275 4.6 -10.8°
Maximum altitude 17:36:54 29° 315° (NW) 1,353 4.1 -11.5°
Drops below altitude 10° 17:41:06 10° 257° (WSW) 2,266 6.5 -12.1°
Sets 17:43:36 0° 246° (WSW) 3,187 7.7 -12.5°
